Vorticity
nan nan nan nan nan nan nan nan nan nan nan nan nan nan nan nan nan nan nan nan nan nan nan nan nan nan nan nan nan nan nan nan nan nan nan nan nan nan nan nan nan nan nan nan nan nan nan nan nan nan nan nan nan nan nan nan nan nan nan nan nan nan nan nan nan nan nan nan nan
nan 12 13 13 13 12 12 11 11 12 15 17 16 15 14 13 12 12 12 13 13 12 10 8 9 10 10 8 7 7 6 6 6 7 6 6 7 7 7 6 5 6 6 6 7 7 6 7 9 9 9 9 10 10 10 10 10 9 8 7 8 8 8 9 9 10 10 10 nan
nan 17 17 15 13 12 12 12 11 11 12 14 15 15 14 13 12 12 12 13 13 11 9 8 7 7 7 7 7 7 7 7 7 7 7 5 5 6 6 6 5 6 6 6 6 6 6 7 9 9 9 9 9 9 9 9 9 8 8 8 7 7 7 8 10 10 10 10 nan
nan 18 17 15 16 17 17 15 12 12 12 12 12 13 14 14 13 12 10 9 8 9 10 11 8 6 5 7 9 10 9 8 6 6 6 6 5 5 5 6 6 6 6 7 6 6 7 7 8 9 10 10 10 9 8 7 7 7 8 9 8 7 7 8 9 10 9 9 nan
nan 17 16 15 17 19 17 14 12 13 13 12 12 12 12 11 11 10 9 8 8 10 12 12 10 8 8 9 8 8 7 7 6 5 5 6 5 5 5 6 6 7 7 7 7 7 8 7 7 9 10 11 10 9 8 7 6 6 7 8 8 9 9 9 9 9 9 9 nan
nan 14 14 15 17 17 16 13 13 13 14 13 15 15 14 13 12 12 12 10 10 10 9 8 9 9 9 7 5 5 5 5 6 7 7 6 5 5 5 6 7 7 7 7 7 8 9 8 7 9 10 10 9 8 8 8 7 7 6 7 8 9 10 9 9 9 9 7 nan
nan 14 14 15 16 16 15 12 11 12 13 12 12 14 15 16 16 14 12 10 8 6 5 6 9 9 8 6 5 6 6 7 7 7 6 5 5 5 6 6 6 6 6 7 8 9 10 9 7 8 9 9 9 10 10 10 9 8 8 7 8 9 10 10 10 10 9 8 nan
nan 13 13 14 14 14 13 13 12 12 13 12 10 11 12 13 12 11 9 9 9 8 8 9 10 10 9 7 7 7 7 7 6 5 4 5 5 5 6 7 7 8 8 8 8 8 7 8 8 8 8 8 9 10 10 10 10 9 9 8 9 9 9 10 9 9 10 10 nan
nan 9 10 12 12 12 12 13 13 13 13 12 11 10 9 9 8 7 7 8 9 9 9 10 9 8 8 7 7 6 6 6 6 5 4 5 6 6 6 8 9 9 9 9 10 9 7 7 8 8 9 9 9 9 9 11 10 10 9 11 9 9 8 9 8 8 9 11 nan
nan 9 8 8 9 10 10 9 9 10 10 10 9 9 8 8 7 7 8 8 9 9 9 9 7 6 6 6 6 6 5 6 5 5 5 6 7 7 7 8 9 9 9 9 12 13 11 10 9 9 9 10 10 9 9 10 10 9 8 9 9 8 8 8 8 8 9 10 nan
nan 10 9 7 7 8 8 8 7 7 7 8 7 7 7 8 8 8 8 9 9 9 8 8 7 6 5 5 5 6 5 5 6 6 7 7 8 9 8 8 9 9 8 8 11 13 13 12 11 10 9 9 10 10 10 9 9 9 7 7 8 8 8 7 7 8 10 10 nan
nan 9 9 8 7 7 8 9 8 7 7 7 6 6 6 7 7 7 8 9 8 7 6 7 7 6 5 6 6 6 6 6 6 7 8 9 9 9 9 9 9 10 10 10 10 12 12 10 9 8 7 6 8 9 9 8 8 8 7 5 6 7 7 7 7 8 9 10 nan
nan 8 8 8 8 8 8 9 9 8 8 7 7 6 7 7 7 6 7 8 7 6 7 7 6 5 5 6 6 6 7 7 7 7 9 10 11 11 10 10 11 11 12 12 10 10 9 8 7 6 6 5 5 7 8 8 8 8 7 6 6 6 6 7 8 8 8 7 nan
nan 8 8 8 8 8 8 8 9 9 9 8 7 7 7 7 6 6 7 8 7 7 7 6 5 6 7 6 6 7 7 8 9 10 10 10 11 11 10 10 11 11 10 9 9 8 6 6 7 7 7 7 6 7 8 9 8 8 8 7 6 6 6 8 8 8 7 7 nan
nan 9 10 10 9 8 9 9 9 9 9 7 7 7 7 7 6 6 8 8 8 7 6 6 6 8 9 8 7 8 9 10 11 11 10 9 9 9 8 8 8 8 7 6 6 7 7 7 8 9 9 9 9 9 8 8 8 8 7 7 7 7 7 8 8 7 7 7 nan
nan 9 10 10 10 9 9 8 9 9 8 7 7 7 8 7 7 7 8 8 7 7 7 6 7 8 10 11 11 11 11 11 10 9 8 7 7 7 7 7 7 7 7 7 7 7 8 9 10 11 10 10 9 9 8 7 7 7 7 7 7 7 7 7 7 7 7 7 nan
nan 9 10 10 10 9 8 8 8 8 8 8 8 9 9 8 8 8 7 7 7 7 8 7 7 8 10 11 12 11 10 9 8 8 7 7 7 7 7 8 8 9 9 9 9 8 9 9 9 10 10 9 8 8 8 7 7 7 7 7 7 7 7 8 8 8 8 8 nan
nan 9 9 9 9 8 7 7 8 8 9 9 9 9 9 9 9 9 8 7 8 9 9 8 8 9 10 9 9 10 9 9 8 7 7 7 8 8 8 9 10 11 11 11 10 10 9 8 7 8 8 8 7 7 7 7 7 7 7 8 8 8 8 8 9 9 9 9 nan
nan 8 8 8 7 7 7 8 9 9 10 10 10 10 10 9 9 8 8 7 9 11 11 10 9 9 10 9 8 8 8 8 8 7 7 8 9 9 9 10 11 11 11 11 10 9 9 8 7 6 6 6 6 7 7 8 8 8 9 10 10 9 9 10 10 10 9 10 nan
nan 8 7 8 8 9 9 10 10 10 10 11 11 11 10 9 9 9 8 9 11 12 11 10 9 8 9 8 7 7 7 8 8 8 9 9 10 10 10 11 11 11 10 10 9 8 8 8 7 7 7 7 7 7 8 9 9 9 10 11 11 11 11 11 11 11 11 11 nan
nan 9 9 10 11 11 11 11 10 9 9 9 9 9 8 8 8 9 9 10 11 10 9 9 8 7 7 7 6 7 7 8 9 10 11 11 11 11 11 12 11 10 9 8 8 8 8 8 8 8 9 9 9 9 9 10 10 10 11 10 11 11 12 13 13 13 13 13 nan
nan 11 12 12 12 11 11 10 10 9 8 7 7 7 7 7 7 7 9 10 10 9 9 9 8 7 7 7 7 8 8 8 9 10 11 11 11 12 12 11 10 9 8 8 9 9 9 10 10 10 10 10 11 11 11 10 11 11 12 11 11 12 13 14 14 14 14 14 nan
nan 12 11 10 9 10 10 10 10 9 8 7 6 5 5 5 5 6 8 9 9 10 10 9 9 8 8 8 8 9 8 7 8 9 10 10 10 11 10 10 9 9 9 10 9 9 9 11 12 12 12 12 12 12 12 12 12 12 13 13 13 14 14 14 14 14 14 13 nan
nan 12 11 9 8 9 10 10 9 8 7 6 6 6 6 5 6 7 8 9 10 10 9 9 8 8 8 9 9 9 9 8 8 9 10 10 9 9 9 9 9 10 10 10 7 5 5 7 9 11 12 12 12 13 13 13 12 12 12 13 13 13 12 12 12 11 11 10 nan
nan 10 10 10 9 8 8 8 8 7 7 7 7 7 7 7 7 8 9 10 11 10 9 7 7 8 9 9 10 11 11 11 10 10 9 9 9 9 9 9 10 11 10 7 4 4 4 2 4 7 10 11 12 12 12 13 13 12 12 12 11 10 9 9 9 9 9 9 nan
nan 8 8 8 8 7 7 6 6 6 6 7 7 7 7 8 9 10 11 11 10 9 8 7 8 8 9 10 10 11 11 12 12 11 9 9 9 9 9 9 10 10 8 4 6 6 7 5 4 5 7 10 12 12 12 13 13 13 13 12 11 9 8 7 8 8 8 8 nan
nan 7 7 6 5 5 5 5 5 6 6 7 7 7 7 8 9 11 11 10 8 7 7 8 9 10 11 11 11 11 11 10 11 11 11 10 9 9 9 10 10 8 5 3 6 7 8 9 8 8 8 11 12 13 13 13 13 14 13 12 11 10 8 8 8 8 8 7 nan
nan 7 6 4 4 6 6 7 7 8 7 7 7 7 7 9 10 11 10 8 6 7 8 9 11 12 12 12 12 12 11 10 10 11 11 11 11 10 9 9 8 6 3 3 6 7 8 9 11 11 12 12 14 15 14 13 13 13 12 11 10 10 9 9 8 8 8 7 nan
nan 7 6 5 6 9 10 10 10 9 8 8 8 8 8 10 11 9 7 5 6 7 9 10 11 11 11 10 12 12 11 10 10 10 10 9 10 10 10 9 8 6 5 5 8 8 9 10 13 14 14 15 17 14 12 11 11 10 10 9 9 8 7 7 6 7 7 9 nan
nan 8 7 8 10 11 11 11 11 10 9 8 8 9 10 11 9 7 6 6 8 9 10 12 11 10 10 11 11 10 10 10 10 9 8 8 8 8 9 9 9 8 6 7 9 9 10 13 15 15 13 15 16 12 10 8 7 7 7 7 7 7 7 7 7 7 8 8 nan
nan 9 9 10 11 11 10 10 10 9 8 8 9 10 10 9 7 7 7 9 10 11 11 13 12 12 11 11 10 9 9 9 8 8 7 8 8 9 9 9 9 8 7 8 10 11 12 13 13 11 9 11 13 11 9 8 7 7 6 6 6 7 8 10 11 10 9 8 nan
nan 10 10 10 10 10 10 9 9 9 10 10 10 10 9 7 6 7 8 9 11 13 13 13 12 11 11 10 10 9 8 8 8 8 8 9 10 10 10 11 11 9 7 9 11 12 12 11 9 7 5 9 14 12 11 9 9 9 8 9 9 9 9 8 9 10 10 9 nan
nan 10 10 10 9 9 10 11 11 11 11 11 10 8 7 6 6 7 9 12 14 15 15 12 11 10 10 9 9 8 8 9 9 9 10 10 10 10 10 12 13 10 8 10 12 11 9 7 6 5 5 12 18 16 13 11 11 10 10 10 11 12 11 9 8 8 9 10 nan
nan 11 11 10 10 10 10 11 11 11 11 10 8 7 6 7 8 9 12 15 16 15 14 12 11 10 10 9 8 8 9 9 9 9 9 10 10 10 10 12 11 8 8 10 10 8 6 4 4 5 9 18 22 18 13 11 10 9 9 9 10 11 11 10 10 9 10 10 nan
nan 11 11 11 10 10 9 9 9 9 9 8 7 7 7 9 11 14 15 15 13 11 11 10 10 9 9 8 9 9 9 9 9 9 9 10 10 11 11 11 10 8 8 8 7 5 4 4 5 7 14 24 23 16 12 11 10 10 10 10 10 10 10 10 11 11 11 11 nan
nan 12 11 10 10 9 9 9 9 8 8 8 8 10 11 13 15 15 15 13 10 9 9 9 8 8 8 8 9 8 8 8 8 9 9 10 10 11 11 12 11 8 7 5 3 2 3 4 6 10 19 26 20 13 11 12 11 11 11 11 11 11 12 12 12 12 12 11 nan
nan 11 9 8 9 10 11 11 10 9 9 10 12 14 14 14 14 13 12 10 9 8 8 8 7 7 7 8 8 8 8 8 9 9 10 11 12 12 12 13 11 9 7 2 0 1 2 4 7 13 23 24 15 11 10 11 11 11 12 13 13 14 15 16 17 16 15 13 nan
nan 7 6 6 7 8 10 11 11 12 13 15 15 15 14 13 12 12 11 9 8 8 8 8 8 8 8 8 9 9 9 9 10 10 11 12 13 13 12 12 11 9 5 0 -1 0 2 5 8 13 22 21 13 11 11 11 10 10 11 13 14 16 17 17 18 19 17 14 nan
nan 5 5 6 7 9 10 12 14 15 16 15 13 12 11 11 11 11 11 9 8 8 8 8 8 8 8 9 9 10 10 11 12 12 12 13 13 12 11 10 8 7 3 -1 -2 0 3 5 8 12 22 22 15 13 11 10 10 10 11 12 14 16 17 17 16 15 13 8 nan
nan 8 8 9 12 13 14 14 15 15 14 13 11 10 11 10 9 9 10 9 8 8 8 8 7 8 9 9 10 10 10 11 12 13 12 12 11 11 11 10 7 6 3 0 -2 0 3 5 7 12 23 24 15 13 11 10 10 9 10 11 13 15 15 14 12 10 8 6 nan
nan nan nan nan nan nan nan nan nan nan nan nan nan nan nan nan nan nan nan nan nan nan nan nan nan nan nan nan nan nan nan nan nan nan nan nan nan nan nan nan nan nan nan nan nan nan nan nan nan nan nan nan nan nan nan nan nan nan nan nan nan nan nan nan nan nan nan nan nan
CAPE
nan nan nan nan nan nan nan nan nan nan nan nan nan nan nan nan nan nan nan nan nan nan nan nan nan nan nan nan nan nan nan nan nan nan nan nan nan nan nan nan nan nan nan nan nan nan nan nan nan nan nan nan nan nan nan nan nan nan nan nan nan nan nan nan nan nan nan nan nan
nan nan nan nan nan nan nan nan nan nan nan nan nan nan nan nan nan nan nan nan nan nan nan nan nan nan nan nan nan nan nan nan nan nan nan nan nan nan nan nan nan nan nan nan nan nan nan nan nan nan nan nan nan nan nan nan nan nan nan nan nan nan nan nan nan nan nan nan nan
nan nan nan nan nan nan nan nan nan nan nan nan nan nan nan nan nan nan nan nan nan nan nan nan nan nan nan nan nan nan nan nan nan nan nan nan nan nan nan nan nan nan nan nan nan nan nan nan nan nan nan nan nan nan nan nan nan nan nan nan nan nan nan nan nan nan nan nan nan
nan nan nan nan nan nan nan nan nan nan nan nan nan nan nan nan nan nan nan nan nan nan nan nan nan nan nan nan nan nan nan nan nan nan nan nan nan nan nan nan nan nan nan nan nan nan nan nan nan nan nan nan nan nan nan nan nan nan nan nan nan nan nan nan nan nan nan nan nan
nan nan nan nan nan nan nan nan nan nan nan nan nan nan nan nan nan nan nan nan nan nan nan nan nan nan nan nan nan nan nan nan nan nan nan nan nan nan nan nan nan nan nan nan nan nan nan nan nan nan nan nan nan nan nan nan nan nan nan nan nan nan nan nan nan nan nan nan nan
nan nan nan nan nan nan nan nan nan nan nan nan nan nan nan nan nan nan nan nan nan nan nan nan nan nan nan nan nan nan nan nan nan nan nan nan nan nan nan nan nan nan nan nan nan nan nan nan nan nan nan nan nan nan nan nan nan nan nan nan nan nan nan nan nan nan nan nan nan
nan nan nan nan nan nan nan nan nan nan nan nan nan nan nan nan nan nan nan nan nan nan nan nan nan nan nan nan nan nan nan nan nan nan nan nan nan nan nan nan nan nan nan nan nan nan nan nan nan nan nan nan nan nan nan nan nan nan nan nan nan nan nan nan nan nan nan nan nan
nan nan nan nan nan nan nan nan nan nan nan nan nan nan nan nan nan nan nan nan nan nan nan nan nan nan nan nan nan nan nan nan nan nan nan nan nan nan nan nan nan nan nan nan nan nan nan nan nan nan nan nan nan nan nan nan nan nan nan nan nan nan nan nan nan nan nan nan nan
nan nan nan nan nan nan nan nan nan nan nan nan nan nan nan nan nan nan nan nan nan nan nan nan nan nan nan nan nan nan nan nan nan nan nan nan nan nan nan nan nan nan nan nan nan nan nan nan nan nan nan nan nan nan nan nan nan nan nan nan nan nan nan nan nan nan nan nan nan
nan nan nan nan nan nan nan nan nan nan nan nan nan nan nan nan nan nan nan nan nan nan nan nan nan nan nan nan nan nan nan nan nan nan nan nan nan nan nan nan nan nan nan nan nan nan nan nan nan nan nan nan nan nan nan nan nan nan nan nan nan nan nan nan nan nan nan nan nan
nan nan nan nan nan nan nan nan nan nan nan nan nan nan nan nan nan nan nan nan nan nan nan nan nan nan nan nan nan nan nan nan nan nan nan nan nan nan nan nan nan nan nan nan nan nan nan nan nan nan nan nan nan nan nan nan nan nan nan nan nan nan nan nan nan nan nan nan nan
nan nan nan nan nan nan nan nan nan nan nan nan nan nan nan nan nan nan nan nan nan nan nan nan nan nan nan nan nan nan nan nan nan nan nan nan nan nan nan nan nan nan nan nan nan nan nan nan nan nan nan nan nan nan nan nan nan nan nan nan nan nan nan nan nan nan nan nan nan
nan nan nan nan nan nan nan nan nan nan nan nan nan nan nan nan nan nan nan nan nan nan nan nan nan nan nan nan nan nan nan nan nan nan nan nan nan nan nan nan nan nan nan nan nan nan nan nan nan nan nan nan nan nan nan nan nan nan nan nan nan nan nan nan nan nan nan nan nan
nan nan nan nan nan nan nan nan nan nan nan nan nan nan nan nan nan nan nan nan nan nan nan nan nan nan nan nan nan nan nan nan nan nan nan nan nan nan nan nan nan nan nan nan nan nan nan nan nan nan nan nan nan nan nan nan nan nan nan nan nan nan nan nan nan nan nan nan nan
nan nan nan nan nan nan nan nan nan nan nan nan nan nan nan nan nan nan nan nan nan nan nan nan nan nan nan nan nan nan nan nan nan nan nan nan nan nan nan nan nan nan nan nan nan nan nan nan nan nan nan nan nan nan nan nan nan nan nan nan nan nan nan nan nan nan nan nan nan
nan nan nan nan nan nan nan nan nan nan nan nan nan nan nan nan nan nan nan nan nan nan nan nan nan nan nan nan nan nan nan nan nan nan nan nan nan nan nan nan nan nan nan nan nan nan nan nan nan nan nan nan nan nan nan nan nan nan nan nan nan nan nan nan nan nan nan nan nan
nan nan nan nan nan nan nan nan nan nan nan nan nan nan nan nan nan nan nan nan nan nan nan nan nan nan nan nan nan nan nan nan nan nan nan nan nan nan nan nan nan nan nan nan nan nan nan nan nan nan nan nan nan nan nan nan nan nan nan nan nan nan nan nan nan nan nan nan nan
nan nan nan nan nan nan nan nan nan nan nan nan nan nan nan nan nan nan nan nan nan nan nan nan nan nan nan nan nan nan nan nan nan nan nan nan nan nan nan nan nan nan nan nan nan nan nan nan nan nan nan nan nan nan nan nan nan nan nan nan nan nan nan nan nan nan nan nan nan
nan nan nan nan nan nan nan nan nan nan nan nan nan nan nan nan nan nan nan nan nan nan nan nan nan nan nan nan nan nan nan nan nan nan nan nan nan nan nan nan nan nan nan nan nan nan nan nan nan nan nan nan nan nan nan nan nan nan nan nan nan nan nan nan nan nan nan nan nan
nan nan nan nan nan nan nan nan nan nan nan nan nan nan nan nan nan nan nan nan nan nan nan nan nan nan nan nan nan nan nan nan nan nan nan nan nan nan nan nan nan nan nan nan nan nan nan nan nan nan nan nan nan nan nan nan nan nan nan nan nan nan nan nan nan nan nan nan nan
nan nan nan nan nan nan nan nan nan nan nan nan nan nan nan nan nan nan nan nan nan nan nan nan nan nan nan nan nan nan nan nan nan nan nan nan nan nan nan nan nan nan nan nan nan nan nan nan nan nan nan nan nan nan nan nan nan nan nan nan nan nan nan nan nan nan nan nan nan
nan nan nan nan nan nan nan nan nan nan nan nan nan nan nan nan nan nan nan nan nan nan nan nan nan nan nan nan nan nan nan nan nan nan nan nan nan nan nan nan nan nan nan nan nan nan nan nan nan nan nan nan nan nan nan nan nan nan nan nan nan nan nan nan nan nan nan nan nan
nan nan nan nan nan nan nan nan nan nan nan nan nan nan nan nan nan nan nan nan nan nan nan nan nan nan nan nan nan nan nan nan nan nan nan nan nan nan nan nan nan nan nan nan nan nan nan nan nan nan nan nan nan nan nan nan nan nan nan nan nan nan nan nan nan nan nan nan nan
nan nan nan nan nan nan nan nan nan nan nan nan nan nan nan nan nan nan nan nan nan nan nan nan nan nan nan nan nan nan nan nan nan nan nan nan nan nan nan nan nan nan nan nan nan nan nan nan nan nan nan nan nan nan nan nan nan nan nan nan nan nan nan nan nan nan nan nan nan
nan nan nan nan nan nan nan nan nan nan nan nan nan nan nan nan nan nan nan nan nan nan nan nan nan nan nan nan nan nan nan nan nan nan nan nan nan nan nan nan nan nan nan nan nan nan nan nan nan nan nan nan nan nan nan nan nan nan nan nan nan nan nan nan nan nan nan nan nan
nan nan nan nan nan nan nan nan nan nan nan nan nan nan nan nan nan nan nan nan nan nan nan nan nan nan nan nan nan nan nan nan nan nan nan nan nan nan nan nan nan nan nan nan nan nan nan nan nan nan nan nan nan nan nan nan nan nan nan nan nan nan nan nan nan nan nan nan nan
nan nan nan nan nan nan nan nan nan nan nan nan nan nan nan nan nan nan nan nan nan nan nan nan nan nan nan nan nan nan nan nan nan nan nan nan nan nan nan nan nan nan nan nan nan nan nan nan nan nan nan nan nan nan nan nan nan nan nan nan nan nan nan nan nan nan nan nan nan
nan nan nan nan nan nan nan nan nan nan nan nan nan nan nan nan nan nan nan nan nan nan nan nan nan nan nan nan nan nan nan nan nan nan nan nan nan nan nan nan nan nan nan nan nan nan nan nan nan nan nan nan nan nan nan nan nan nan nan nan nan nan nan nan nan nan nan nan nan
nan nan nan nan nan nan nan nan nan nan nan nan nan nan nan nan nan nan nan nan nan nan nan nan nan nan nan nan nan nan nan nan nan nan nan nan nan nan nan nan nan nan nan nan nan nan nan nan nan nan nan nan nan nan nan nan nan nan nan nan nan nan nan nan nan nan nan nan nan
nan nan nan nan nan nan nan nan nan nan nan nan nan nan nan nan nan nan nan nan nan nan nan nan nan nan nan nan nan nan nan nan nan nan nan nan nan nan nan nan nan nan nan nan nan nan nan nan nan nan nan nan nan nan nan nan nan nan nan nan nan nan nan nan nan nan nan nan nan
nan nan nan nan nan nan nan nan nan nan nan nan nan nan nan nan nan nan nan nan nan nan nan nan nan nan nan nan nan nan nan nan nan nan nan nan nan nan nan nan nan nan nan nan nan nan nan nan nan nan nan nan nan nan nan nan nan nan nan nan nan nan nan nan nan nan nan nan nan
nan nan nan nan nan nan nan nan nan nan nan nan nan nan nan nan nan nan nan nan nan nan nan nan nan nan nan nan nan nan nan nan nan nan nan nan nan nan nan nan nan nan nan nan nan nan nan nan nan nan nan nan nan nan nan nan nan nan nan nan nan nan nan nan nan nan nan nan nan
nan nan nan nan nan nan nan nan nan nan nan nan nan nan nan nan nan nan nan nan nan nan nan nan nan nan nan nan nan nan nan nan nan nan nan nan nan nan nan nan nan nan nan nan nan nan nan nan nan nan nan nan nan nan nan nan nan nan nan nan nan nan nan nan nan nan nan nan nan
nan nan nan nan nan nan nan nan nan nan nan nan nan nan nan nan nan nan nan nan nan nan nan nan nan nan nan nan nan nan nan nan nan nan nan nan nan nan nan nan nan nan nan nan nan nan nan nan nan nan nan nan nan nan nan nan nan nan nan nan nan nan nan nan nan nan nan nan nan
nan nan nan nan nan nan nan nan nan nan nan nan nan nan nan nan nan nan nan nan nan nan nan nan nan nan nan nan nan nan nan nan nan nan nan nan nan nan nan nan nan nan nan nan nan nan nan nan nan nan nan nan nan nan nan nan nan nan nan nan nan nan nan nan nan nan nan nan nan
nan nan nan nan nan nan nan nan nan nan nan nan nan nan nan nan nan nan nan nan nan nan nan nan nan nan nan nan nan nan nan nan nan nan nan nan nan nan nan nan nan nan nan nan nan nan nan nan nan nan nan nan nan nan nan nan nan nan nan nan nan nan nan nan nan nan nan nan nan
nan nan nan nan nan nan nan nan nan nan nan nan nan nan nan nan nan nan nan nan nan nan nan nan nan nan nan nan nan nan nan nan nan nan nan nan nan nan nan nan nan nan nan nan nan nan nan nan nan nan nan nan nan nan nan nan nan nan nan 0 nan nan nan nan nan nan nan nan nan
nan nan nan nan nan nan nan nan nan nan nan nan nan nan nan nan nan nan nan nan nan nan nan nan nan nan nan nan nan nan nan nan nan nan nan nan nan nan nan nan nan nan nan nan nan nan nan nan nan nan nan nan nan nan nan nan nan 0 0 2 3 nan nan nan nan nan nan 0 2
nan nan nan nan nan nan nan nan nan nan nan nan nan nan nan nan nan nan nan nan nan nan nan nan nan nan nan nan nan nan nan nan nan nan nan nan nan nan nan nan nan nan nan nan nan nan nan nan nan nan nan nan nan nan nan nan 1 7 7 14 17 1 1 15 22 22 20 15 39
nan nan nan nan nan nan nan nan nan nan nan nan nan nan nan nan nan nan nan nan nan nan nan nan nan nan nan nan nan nan nan nan nan nan nan nan nan nan nan nan nan nan nan nan nan nan nan nan nan nan 2 nan nan nan nan nan 3 12 12 19 29 41 41 42 32 32 14 nan 11
nan nan nan nan nan nan nan nan nan nan nan nan nan nan nan nan nan nan nan nan nan nan nan nan nan nan nan nan nan nan nan nan nan nan nan nan nan nan nan nan nan nan nan nan nan nan nan nan 1 1 4 nan nan nan nan nan nan 6 6 14 29 37 37 13 nan nan nan nan nan